Tracking 31027 objects as of 19-Jul-2025
HD Live streaming from Space Station
objects crossing your sky now

DELTA 4 R/B

Track DELTA 4 R/B now!


NORAD ID: 28546
Int'l Code: 2004-050B
Perigee: 18,904.0 km
Apogee: 36,563.3 km
Inclination: 16.3 °
Period: 1,044.7 minutes
Semi major axis: 34104 km
RCS: Unknown
Launch date: December 21, 2004
Source: United States (US)
Launch site: AIR FORCE EASTERN TEST RANGE (AFETR)

Note: This is a ROCKET BODY
Your satellite tracking list
FLOCK 4Q 34
Track 1 satellite(s)




NASA's NSSDC Master Catalog

Two Line Element Set (TLE):
1 28546U 04050B   25199.29092970 -.00000135  00000-0  00000-0 0  9998
2 28546  16.3104 327.6199 2588989 324.1509 224.9912  1.37842462103495
Source of the keplerian elements: McCants